Time,TemperatureF,DewpointF,PressureIn,WindDirection,WindDirectionDegrees,WindSpeedMPH,WindSpeedGustMPH,Humidity,HourlyPrecipIn,Conditions,Clouds,dailyrainin,SoftwareType,DateUTC
2013-02-15 00:14:00,58.0,56.9,29.93,NNE,13,0.0,0.0,96,0.02,RA,,0.02,WeatherDisplay:10.37,2013-02-15 05:14:00,
2013-02-15 00:29:00,57.8,56.7,29.95,North,352,0.0,5.0,96,0.00,,,0.02,WeatherDisplay:10.37,2013-02-15 05:29:00,
2013-02-15 00:44:00,57.5,56.4,29.95,NW,318,1.0,7.0,96,0.00,,,0.02,WeatherDisplay:10.37,2013-02-15 05:44:00,
2013-02-15 00:59:00,56.8,55.7,29.93,NW,319,0.0,4.0,96,0.00,,,0.02,WeatherDisplay:10.37,2013-02-15 05:59:00,
2013-02-15 01:14:00,56.5,55.4,29.94,NW,322,1.0,6.0,96,0.00,,,0.02,WeatherDisplay:10.37,2013-02-15 06:14:00,
2013-02-15 01:29:00,55.9,54.8,29.95,NW,312,1.0,10.0,96,0.00,,,0.02,WeatherDisplay:10.37,2013-02-15 06:29:00,
2013-02-15 01:44:00,55.7,54.6,29.95,NNE,18,0.0,10.0,96,0.00,,,0.02,WeatherDisplay:10.37,2013-02-15 06:44:00,
2013-02-15 01:59:00,55.4,54.3,29.96,NNW,328,0.0,7.0,96,0.00,,,0.02,WeatherDisplay:10.37,2013-02-15 06:59:00,
2013-02-15 02:14:00,55.0,53.9,29.96,NW,310,1.0,7.0,96,0.00,,,0.02,WeatherDisplay:10.37,2013-02-15 07:14:00,
2013-02-15 02:29:00,54.7,53.9,29.98,NW,314,1.0,8.0,97,0.00,,,0.02,WeatherDisplay:10.37,2013-02-15 07:29:00,
2013-02-15 02:44:00,54.5,53.7,29.98,NW,313,0.0,6.0,97,0.01,RA,,0.03,WeatherDisplay:10.37,2013-02-15 07:44:00,
2013-02-15 02:59:00,54.1,53.3,29.95,NW,309,0.0,2.0,97,0.00,,,0.03,WeatherDisplay:10.37,2013-02-15 07:59:00,
2013-02-15 03:14:00,53.9,53.1,29.94,NW,309,0.0,0.0,97,0.00,,,0.03,WeatherDisplay:10.37,2013-02-15 08:14:00,
2013-02-15 03:29:00,54.1,53.3,29.95,NW,316,0.0,7.0,97,0.00,,,0.03,WeatherDisplay:10.37,2013-02-15 08:29:00,
2013-02-15 03:44:00,53.8,53.0,29.95,NW,314,0.0,7.0,97,0.00,,,0.03,WeatherDisplay:10.37,2013-02-15 08:44:00,
2013-02-15 03:59:00,53.6,52.8,29.93,NW,316,0.0,0.0,97,0.00,,,0.03,WeatherDisplay:10.37,2013-02-15 08:59:00,
2013-02-15 04:14:00,53.5,52.7,29.95,NW,317,3.0,6.0,97,0.00,,,0.03,WeatherDisplay:10.37,2013-02-15 09:14:00,
2013-02-15 04:29:00,53.6,52.8,29.95,NW,326,2.0,6.0,97,0.00,,,0.03,WeatherDisplay:10.37,2013-02-15 09:29:00,
2013-02-15 04:44:00,53.5,52.7,29.98,NNW,342,0.0,0.0,97,0.00,,,0.03,WeatherDisplay:10.37,2013-02-15 09:44:00,
2013-02-15 04:59:00,53.3,52.5,29.97,WNW,290,0.0,0.0,97,0.00,,,0.03,WeatherDisplay:10.37,2013-02-15 09:59:00,
2013-02-15 05:14:00,53.3,52.5,29.96,WNW,290,0.0,0.0,97,0.00,,,0.03,WeatherDisplay:10.37,2013-02-15 10:14:00,
2013-02-15 05:29:00,53.3,52.5,29.97,WNW,303,0.0,5.0,97,0.00,,,0.03,WeatherDisplay:10.37,2013-02-15 10:29:00,
2013-02-15 05:44:00,53.5,52.7,29.97,NW,305,0.0,0.0,97,0.00,,,0.03,WeatherDisplay:10.37,2013-02-15 10:44:00,
2013-02-15 05:59:00,53.5,52.7,29.98,NW,305,0.0,0.0,97,0.01,RA,,0.04,WeatherDisplay:10.37,2013-02-15 10:59:00,
2013-02-15 06:14:00,53.3,52.4,29.97,NW,305,0.0,0.0,97,0.00,,,0.04,WeatherDisplay:10.37,2013-02-15 11:14:00,
2013-02-15 06:29:00,52.8,52.0,29.96,NW,309,0.0,5.0,97,0.00,,,0.04,WeatherDisplay:10.37,2013-02-15 11:29:00,
2013-02-15 06:44:00,52.8,52.0,29.96,NW,309,2.0,8.0,97,0.00,,,0.04,WeatherDisplay:10.37,2013-02-15 11:44:00,
2013-02-15 06:59:00,52.7,51.8,29.98,NW,311,2.0,6.0,97,0.00,CLR,,0.04,WeatherDisplay:10.37,2013-02-15 11:59:00,
2013-02-15 07:14:00,52.6,51.8,29.98,NNW,329,0.0,5.0,97,0.00,CLR,,0.04,WeatherDisplay:10.37,2013-02-15 12:14:00,
2013-02-15 07:29:00,52.8,52.0,29.99,NW,317,0.0,5.0,97,0.00,CLR,,0.04,WeatherDisplay:10.37,2013-02-15 12:29:00,
2013-02-15 07:44:00,52.6,51.8,29.99,NW,316,0.0,6.0,97,0.00,CLR,,0.04,WeatherDisplay:10.37,2013-02-15 12:44:00,
2013-02-15 07:59:00,52.5,51.6,30.00,NW,315,0.0,6.0,97,0.00,CLR,,0.04,WeatherDisplay:10.37,2013-02-15 12:59:00,
2013-02-15 08:14:00,52.5,51.7,30.01,NW,308,0.0,7.0,97,0.00,CLR,,0.04,WeatherDisplay:10.37,2013-02-15 13:14:00,
2013-02-15 08:29:00,52.3,51.2,30.00,NW,319,0.0,7.0,96,0.00,CLR,,0.04,WeatherDisplay:10.37,2013-02-15 13:29:00,
2013-02-15 08:44:00,52.4,51.3,30.00,NW,314,0.0,9.0,96,0.00,CLR,,0.04,WeatherDisplay:10.37,2013-02-15 13:44:00,
2013-02-15 08:59:00,53.0,51.9,30.01,NW,313,3.0,8.0,96,0.00,CLR,,0.04,WeatherDisplay:10.37,2013-02-15 13:59:00,
2013-02-15 09:14:00,53.1,51.7,30.02,NW,308,0.0,8.0,95,0.00,CLR,,0.04,WeatherDisplay:10.37,2013-02-15 14:14:00,
2013-02-15 09:29:00,53.2,51.5,30.02,NW,310,0.0,7.0,94,0.00,CLR,,0.04,WeatherDisplay:10.37,2013-02-15 14:29:00,
2013-02-15 09:44:00,53.8,52.1,30.02,NW,306,0.0,6.0,94,0.00,CLR,,0.04,WeatherDisplay:10.37,2013-02-15 14:44:00,
2013-02-15 09:59:00,54.7,52.7,30.02,NW,313,3.0,12.0,93,0.00,CLR,,0.04,WeatherDisplay:10.37,2013-02-15 14:59:00,
2013-02-15 10:14:00,54.5,51.6,30.03,NW,312,1.0,8.0,90,0.00,CLR,,0.04,WeatherDisplay:10.37,2013-02-15 15:14:00,
2013-02-15 10:29:00,55.0,51.8,30.02,NW,309,0.0,5.0,89,0.00,CLR,,0.04,WeatherDisplay:10.37,2013-02-15 15:29:00,
2013-02-15 10:44:00,55.9,52.7,30.01,NNW,336,0.0,6.0,89,0.00,CLR,,0.04,WeatherDisplay:10.37,2013-02-15 15:44:00,
2013-02-15 10:59:00,56.3,52.2,30.01,NW,314,0.0,7.0,86,0.00,CLR,,0.04,WeatherDisplay:10.37,2013-02-15 15:59:00,
2013-02-15 11:14:00,57.1,53.0,30.02,NW,313,0.0,6.0,86,0.00,CLR,,0.04,WeatherDisplay:10.37,2013-02-15 16:14:00,
2013-02-15 11:29:00,57.2,51.8,30.02,NW,309,1.0,6.0,82,0.00,CLR,,0.04,WeatherDisplay:10.37,2013-02-15 16:29:00,
2013-02-15 11:44:00,57.6,52.1,30.01,NW,308,0.0,4.0,82,0.00,CLR,,0.04,WeatherDisplay:10.37,2013-02-15 16:44:00,
2013-02-15 11:59:00,59.4,53.5,30.01,NW,308,0.0,3.0,81,0.00,CLR,,0.04,WeatherDisplay:10.37,2013-02-15 16:59:00,
2013-02-15 12:14:00,60.2,52.6,30.00,NW,318,0.0,8.0,76,0.00,CLR,,0.04,WeatherDisplay:10.37,2013-02-15 17:14:00,
2013-02-15 12:29:00,61.9,53.2,29.99,NW,319,3.0,5.0,73,0.00,CLR,,0.04,WeatherDisplay:10.37,2013-02-15 17:29:00,
2013-02-15 12:44:00,63.4,53.4,29.98,NW,319,0.0,3.0,70,0.00,CLR,,0.04,WeatherDisplay:10.37,2013-02-15 17:44:00,
2013-02-15 12:59:00,64.3,54.3,29.98,NW,319,0.0,0.0,70,0.00,CLR,,0.04,WeatherDisplay:10.37,2013-02-15 17:59:00,
2013-02-15 13:14:00,65.7,54.0,29.97,WNW,294,0.0,0.0,66,0.00,CLR,,0.04,WeatherDisplay:10.37,2013-02-15 18:14:00,
2013-02-15 13:29:00,66.3,55.0,29.96,NW,306,0.0,8.0,67,0.00,CLR,,0.04,WeatherDisplay:10.37,2013-02-15 18:29:00,
2013-02-15 13:44:00,66.6,55.3,29.95,NW,309,0.0,4.0,67,0.00,CLR,,0.04,WeatherDisplay:10.37,2013-02-15 18:44:00,
2013-02-15 13:59:00,67.0,54.8,29.95,West,272,0.0,4.0,65,0.00,,,0.04,WeatherDisplay:10.37,2013-02-15 18:59:00,
2013-02-15 14:14:00,68.3,55.6,29.94,WSW,255,0.0,8.0,64,0.00,,,0.04,WeatherDisplay:10.37,2013-02-15 19:14:00,
2013-02-15 14:29:00,68.6,55.5,29.93,WSW,245,0.0,6.0,63,0.00,,,0.04,WeatherDisplay:10.37,2013-02-15 19:29:00,
2013-02-15 14:44:00,70.4,55.8,29.92,South,183,2.0,7.0,60,0.00,,,0.04,WeatherDisplay:10.37,2013-02-15 19:44:00,
2013-02-15 14:59:00,71.5,55.9,29.92,SSW,196,0.0,7.0,58,0.00,,,0.04,WeatherDisplay:10.37,2013-02-15 19:59:00,
2013-02-15 15:14:00,71.5,55.5,29.92,South,181,0.0,4.0,57,0.00,,,0.04,WeatherDisplay:10.37,2013-02-15 20:14:00,
2013-02-15 15:29:00,71.8,56.2,29.91,South,169,0.0,6.0,58,0.00,,,0.04,WeatherDisplay:10.37,2013-02-15 20:29:00,
2013-02-15 15:44:00,69.9,54.9,29.91,WSW,244,0.0,7.0,59,0.00,,,0.04,WeatherDisplay:10.37,2013-02-15 20:44:00,
2013-02-15 15:59:00,69.9,54.9,29.91,WSW,258,2.0,9.0,59,0.00,,,0.04,WeatherDisplay:10.37,2013-02-15 20:59:00,
2013-02-15 16:14:00,69.6,54.2,29.92,WSW,246,0.0,8.0,58,0.00,,,0.04,WeatherDisplay:10.37,2013-02-15 21:14:00,
2013-02-15 16:29:00,69.1,54.2,29.91,WSW,247,0.0,7.0,59,0.00,,,0.04,WeatherDisplay:10.37,2013-02-15 21:29:00,
2013-02-15 16:44:00,68.6,53.7,29.92,West,259,0.0,7.0,59,0.00,,,0.04,WeatherDisplay:10.37,2013-02-15 21:44:00,
2013-02-15 16:59:00,67.3,51.5,29.92,WSW,240,0.0,9.0,57,0.00,CLR,,0.04,WeatherDisplay:10.37,2013-02-15 21:59:00,
2013-02-15 17:14:00,66.9,51.2,29.92,WSW,238,0.0,4.0,57,0.00,CLR,,0.04,WeatherDisplay:10.37,2013-02-15 22:14:00,
2013-02-15 17:29:00,66.6,51.4,29.91,WSW,245,0.0,3.0,58,0.00,CLR,,0.04,WeatherDisplay:10.37,2013-02-15 22:29:00,
2013-02-15 17:44:00,66.1,51.8,29.91,WSW,247,0.0,0.0,60,0.00,CLR,,0.04,WeatherDisplay:10.37,2013-02-15 22:44:00,
2013-02-15 17:59:00,65.5,52.5,29.90,WSW,247,0.0,0.0,63,0.00,CLR,,0.04,WeatherDisplay:10.37,2013-02-15 22:59:00,
2013-02-15 18:14:00,64.5,52.5,29.90,WSW,247,0.0,0.0,65,0.00,CLR,,0.04,WeatherDisplay:10.37,2013-02-15 23:14:00,
2013-02-15 18:29:00,63.4,52.2,29.90,WSW,247,0.0,0.0,67,0.00,CLR,,0.04,WeatherDisplay:10.37,2013-02-15 23:29:00,
2013-02-15 18:44:00,62.1,51.0,29.91,WSW,247,0.0,0.0,67,0.00,CLR,,0.04,WeatherDisplay:10.37,2013-02-15 23:44:00,
2013-02-15 18:59:00,61.2,50.6,29.91,WSW,247,0.0,0.0,68,0.00,,,0.04,WeatherDisplay:10.37,2013-02-15 23:59:00,
2013-02-15 19:14:00,60.4,50.6,29.91,WSW,247,0.0,0.0,70,0.00,,,0.04,WeatherDisplay:10.37,2013-02-16 00:14:00,
2013-02-15 19:29:00,59.5,50.1,29.92,WSW,247,0.0,0.0,71,0.00,,,0.04,WeatherDisplay:10.37,2013-02-16 00:29:00,
2013-02-15 19:44:00,59.5,51.6,29.92,WNW,286,0.0,5.0,75,0.00,,,0.04,WeatherDisplay:10.37,2013-02-16 00:44:00,
2013-02-15 19:59:00,59.9,53.0,29.92,North,358,0.0,6.0,78,0.00,,,0.04,WeatherDisplay:10.37,2013-02-16 00:59:00,
2013-02-15 20:14:00,59.8,52.6,29.92,NNE,15,0.0,8.0,77,0.00,,,0.04,WeatherDisplay:10.37,2013-02-16 01:14:00,
2013-02-15 20:29:00,59.3,52.4,29.93,NNE,15,0.0,4.0,78,0.00,,,0.04,WeatherDisplay:10.37,2013-02-16 01:29:00,
2013-02-15 20:44:00,58.7,52.2,29.92,NNE,15,0.0,0.0,79,0.00,,,0.04,WeatherDisplay:10.37,2013-02-16 01:44:00,
2013-02-15 20:59:00,58.1,52.0,29.93,NNE,15,0.0,0.0,80,0.00,,,0.04,WeatherDisplay:10.37,2013-02-16 01:59:00,
2013-02-15 21:14:00,57.6,52.1,29.93,NNE,15,0.0,0.0,82,0.00,,,0.04,WeatherDisplay:10.37,2013-02-16 02:14:00,
2013-02-15 21:29:00,57.2,51.8,29.93,NNE,15,0.0,0.0,82,0.00,,,0.04,WeatherDisplay:10.37,2013-02-16 02:29:00,
2013-02-15 21:44:00,56.7,51.6,29.93,NNE,15,0.0,0.0,83,0.00,,,0.04,WeatherDisplay:10.37,2013-02-16 02:44:00,
2013-02-15 21:59:00,56.3,51.2,29.93,NNE,15,0.0,0.0,83,0.00,,,0.04,WeatherDisplay:10.37,2013-02-16 02:59:00,
2013-02-15 22:14:00,56.2,51.4,29.93,NNE,15,0.0,0.0,84,0.00,,,0.04,WeatherDisplay:10.37,2013-02-16 03:14:00,
2013-02-15 22:29:00,56.0,51.6,29.94,NNE,15,0.0,0.0,85,0.00,,,0.04,WeatherDisplay:10.37,2013-02-16 03:29:00,
2013-02-15 22:44:00,55.7,51.3,29.94,NNE,15,0.0,0.0,85,0.00,,,0.04,WeatherDisplay:10.37,2013-02-16 03:44:00,
2013-02-15 22:59:00,55.6,51.2,29.93,NNE,15,0.0,0.0,85,0.00,,,0.04,WeatherDisplay:10.37,2013-02-16 03:59:00,
2013-02-15 23:14:00,55.1,51.0,29.93,NNE,15,0.0,0.0,86,0.00,,,0.04,WeatherDisplay:10.37,2013-02-16 04:14:00,
2013-02-15 23:29:00,55.2,51.4,29.93,NNE,15,0.0,0.0,87,0.00,,,0.04,WeatherDisplay:10.37,2013-02-16 04:29:00,
2013-02-15 23:44:00,55.1,51.3,29.93,NNE,15,0.0,0.0,87,0.00,,,0.04,WeatherDisplay:10.37,2013-02-16 04:44:00,
2013-02-15 23:59:00,54.8,51.0,29.92,NNE,15,0.0,0.0,87,0.00,RA,,0.00,WeatherDisplay:10.37,2013-02-16 04:59:00,